Flag for Canada Weather past 2 weeks in Cape Dorset, Nunavut Territory, Canada

Now
10 °F

Light snow. Clear.


Feels Like: -4 °F
Forecast: 10 / 24 °F
Wind: 12 mph from West

Location: Cape Dorset


UV Index: 0 (Low)

Visibility: 9 mi


Pressure: 29.94 "Hg

Humidity: 85%

Dew point: 7 °F

Location of Cape DorsetLocation

Historic Weather in Cape Dorset

°F

Cape Dorset temperature yesterday

Maximum temperature yesterday: 16 °F (at 5:00 PM)
Minimum temperature yesterday: 0 °F (at 12:00 AM)
Average temperature yesterday: 7 °F

Past Weeks' High & Low Weather Summary

 TemperatureHumidityPressure
High16 °F (Apr 18, 5:00 PM)92% (Apr 6, 12:00 AM)30.25 "Hg (Apr 6, 12:00 AM)
Low-8 °F (Apr 4, 6:57 AM)59% (Apr 4, 12:47 PM)29.11 "Hg (Apr 10, 6:00 PM)
Average2 °F79%29.74 "Hg
* Reported Apr 4 2:00 AM — Apr 19 2:00 AM, Cape Dorset, Weather by CustomWeather, © 2014

Note: Actual official high and low records may vary slightly from our data, if they occured in-between our weather recording intervals... More about our weather records

Advertising

Historic Weather Conditions — Data for Previous 24 hours

 ConditionsComfort  
Time TempWeatherWind HumidityBarometerVisibility
2:00 AM
Apr 19
9 °FLight snow. Passing clouds.13 mph92%29.94 "Hg9 mi
1:00 AM9 °FClear.26 mph85%29.92 "Hg9 mi
12:00 AM10 °FClear.20 mph79%29.94 "Hg9 mi
11:00 PM
Apr 18
10 °FClear.16 mph85%29.95 "Hg9 mi
10:00 PM12 °FHigh level clouds.14 mph85%29.95 "Hg9 mi
9:00 PM14 °FPassing clouds.18 mph73%29.96 "Hg9 mi
8:00 PM14 °FLight snow. Clear.28 mph79%29.94 "Hg9 mi
7:00 PM14 °FSunny.25 mph79%29.96 "Hg9 mi
6:00 PM14 °FSunny.26 mph79%29.95 "Hg9 mi
5:00 PM16 °FSunny.23 mph73%29.95 "Hg9 mi
4:00 PM14 °FSunny.26 mph73%29.93 "Hg9 mi
3:49 PM14 °FSunny.28 mph73%29.93 "Hg9 mi
3:00 PM14 °FLight snow. Sunny.21 mph79%29.93 "Hg9 mi
2:51 PM12 °FLight snow. Sunny.23 mph85%29.93 "Hg9 mi
2:00 PM12 °FLight snow. Scattered clouds.16 mph79%29.94 "Hg9 mi
1:54 PM12 °FLight snow. Scattered clouds.17 mph79%29.94 "Hg9 mi
1:00 PM10 °FLight snow. Passing clouds.25 mph85%29.93 "Hg8 mi
12:50 PM10 °FLight snow. Passing clouds.24 mph79%29.92 "Hg6 mi
12:04 PM9 °FLight snow. Sunny.25 mph78%29.92 "Hg7 mi
11:56 AM9 °FLight snow. Low level haze.23 mph78%29.92 "Hg3 mi
11:00 AM7 °FLight snow. Sunny.21 mph85%29.90 "Hg9 mi
10:00 AM5 °FLight snow. Sunny.17 mph78%29.92 "Hg9 mi
9:00 AM3 °FLight snow. Partly sunny.23 mph85%29.91 "Hg9 mi
8:48 AM3 °FLight snow. Partly sunny.24 mph85%29.92 "Hg8 mi
8:00 AM3 °FLight snow. Sunny.21 mph78%29.91 "Hg5 mi
7:56 AM3 °FLight snow. Sunny.22 mph78%29.91 "Hg6 mi
7:00 AM1 °FLight snow. Passing clouds.15 mph85%29.91 "Hg4 mi
6:49 AM1 °FLight snow. Passing clouds.15 mph85%29.91 "Hg5 mi
6:00 AM1 °FSunny.16 mph85%29.90 "Hg9 mi
5:00 AM1 °FSunny.20 mph78%29.90 "Hg9 mi
4:00 AM1 °FPassing clouds.18 mph85%29.88 "Hg9 mi
3:48 AM1 °FPassing clouds.17 mph85%29.88 "Hg9 mi
3:00 AM1 °FClear.18 mph85%29.87 "Hg9 mi
Weather by CustomWeather, © 2014

See weather overview